Location: Larne
(54.8508°N, 5.8183°W)
Time: 16:29:50
(UTC+01:00)

ISS - Visible Passes

Search period start: 26 September 2021 00:00
Search period end: 06 October 2021 00:00
Orbit: 417 x 423 km, 51.6° (Epoch: 26 September)

Date Brightness Start Highest point End Pass type
(mag) Time Alt. Az. Time Alt. Az. Time Alt. Az.
26 Sep -3.2 20:01:11 10° WSW 20:04:26 48° S 20:07:19 13° ESE visible
26 Sep -2.4 21:37:49 10° W 21:40:17 32° SW 21:40:17 32° SW visible
27 Sep -3.0 20:50:35 10° W 20:53:48 42° SSW 20:54:48 32° SSE visible
27 Sep -0.6 22:27:41 10° WSW 22:27:46 10° WSW 22:27:46 10° WSW visible
28 Sep -3.1 20:03:26 10° W 20:06:41 46° S 20:09:22 14° ESE visible
28 Sep -1.8 21:40:19 10° W 21:42:21 22° SW 21:42:21 22° SW visible
29 Sep -2.4 20:53:06 10° W 20:56:05 29° SSW 20:57:00 25° S visible
30 Sep -2.6 20:06:00 10° W 20:09:08 36° SSW 20:11:45 13° SE visible
30 Sep -1.1 21:43:34 10° WSW 21:44:44 13° SW 21:44:44 13° SW visible
01 Oct -1.6 20:56:08 10° WSW 20:58:30 18° SSW 20:59:36 16° S visible
02 Oct -1.8 20:08:58 10° W 20:11:43 23° SSW 20:14:28 10° SSE visible
03 Oct -2.1 19:21:59 10° W 19:24:57 29° SSW 19:27:55 10° SE visible
04 Oct -1.0 20:12:44 10° WSW 20:14:24 13° SW 20:16:03 10° S visible
05 Oct -1.1 19:25:30 10° WSW 19:27:49 17° SSW 19:30:08 10° SSE visible
